Location: Unnamed
(53.9021°N, 27.5568°E)
Time: 00:33:59
(UTC+03:00)

STARLINK-73 - Pass Details

Date: 23 January 2020
Orbit: 528 x 531 km, 53.0° (Epoch: 24 February)

Event Time Altitude Azimuth Distance (km) Brightness Sun altitude
Exits shadow 07:34:23 12° 236° (SW) 1,657 5.7 -13.8°
Maximum altitude 07:38:00 54° 160° (SSE) 653 4.2 -13.3°
Drops below altitude 10° 07:41:57 10° 83° (E) 1,784 7.4 -12.8°
Sets 07:44:12 0° 79° (ENE) 2,676 8.3 -12.4°
